Wind_Speed
23 22 21 20 21 21 22 21 21 21 21 22 21 20 20 20 20 20 20 19 19 18 18 19 19 19 20 20 21 21 21 21 21 20 20 19 19 18 17 15 14 13 13 13 12 13 13 13 13 13 14 14 15 15 14 14 13 12 11 10 10 9 9 9 10 10 11 11 9
24 23 21 20 21 22 23 22 22 22 22 22 21 21 21 21 21 21 20 20 19 19 19 19 19 19 20 20 21 21 22 22 22 22 22 22 22 21 20 19 18 17 17 17 17 17 17 17 17 17 17 18 18 18 18 17 17 16 16 16 16 14 14 15 15 14 14 14 14
24 24 23 23 23 23 23 23 23 22 22 21 21 21 21 20 20 20 20 20 20 20 19 19 19 19 20 20 21 21 22 22 22 23 23 23 23 23 23 22 21 21 20 20 20 20 20 20 20 20 19 19 20 21 21 21 20 20 21 21 20 19 19 19 19 18 17 17 17
24 24 23 24 24 24 23 22 22 22 22 21 22 22 21 21 20 20 20 21 21 20 20 20 19 19 20 20 21 21 22 22 22 23 24 24 24 24 24 23 23 23 23 22 22 22 22 22 21 21 22 22 22 22 21 22 23 24 24 25 24 24 23 22 22 21 20 20 19
24 24 23 23 23 23 23 23 22 22 22 22 22 22 22 22 21 20 20 21 20 20 20 20 20 20 21 21 21 22 22 22 22 23 24 24 24 24 24 25 25 24 24 24 23 23 23 22 22 22 22 23 23 22 22 22 23 25 26 26 26 26 25 24 23 23 22 22 21
23 23 23 23 23 23 22 22 22 22 23 23 23 23 22 21 21 21 21 21 20 20 19 20 20 21 21 22 22 23 23 23 23 23 24 24 24 24 25 25 25 25 25 24 24 24 23 23 22 21 22 22 22 22 21 21 22 24 26 27 27 27 26 25 24 23 23 23 23
22 22 23 23 23 23 23 23 23 23 23 24 24 23 23 22 22 21 21 21 20 20 20 20 21 21 22 22 23 23 23 23 23 23 23 23 23 24 25 25 25 25 25 25 25 24 24 23 22 22 21 21 21 22 21 21 21 23 25 26 27 27 26 25 24 23 23 24 25
21 22 23 23 24 24 24 23 23 23 23 23 23 22 22 21 21 21 21 21 21 21 21 21 21 21 22 23 23 23 23 23 22 22 22 23 23 24 24 25 25 25 25 25 25 24 24 24 23 22 21 21 21 21 21 21 22 24 25 25 25 25 25 24 23 23 24 25 25
22 22 22 23 23 23 23 23 23 23 23 23 22 22 21 21 21 21 21 22 21 21 21 21 21 21 22 23 23 23 23 22 22 22 22 22 23 23 24 24 24 25 24 24 24 24 24 23 23 22 21 21 21 21 21 22 24 25 25 25 24 23 24 24 23 23 24 25 26
21 21 21 22 22 22 22 23 23 23 23 22 22 21 21 20 21 21 21 21 21 21 22 22 21 22 22 23 23 23 23 23 22 22 22 22 23 23 23 24 24 24 24 23 23 23 23 23 22 22 21 21 21 21 22 23 24 25 25 24 23 22 22 23 24 24 24 25 25
21 21 21 21 21 22 22 23 23 23 23 22 22 21 21 20 20 20 20 20 21 22 22 22 22 22 23 23 23 23 23 23 22 22 22 22 22 22 22 22 22 23 22 22 22 22 22 22 22 22 21 21 21 21 22 23 24 25 25 23 22 22 22 23 23 24 24 24 25
22 22 22 22 22 22 22 22 22 22 22 22 21 21 21 20 20 19 19 20 21 21 22 22 22 22 23 23 23 23 23 23 23 23 23 23 22 22 21 21 21 21 21 21 21 22 22 22 22 21 21 21 21 21 22 23 24 25 25 24 23 23 23 23 23 23 24 24 24
22 22 22 22 22 22 22 22 22 22 22 21 21 21 20 20 19 19 19 20 20 20 21 21 22 22 22 22 22 22 23 23 23 23 23 24 23 22 21 20 20 20 20 21 21 21 21 21 21 21 21 21 21 22 23 24 25 25 25 24 23 23 23 23 23 23 23 24 24
21 21 21 21 21 22 22 22 21 21 21 20 20 20 20 20 19 18 19 19 19 20 20 20 21 21 21 21 21 22 22 22 23 23 23 23 23 23 22 20 19 19 19 20 20 21 21 21 20 20 20 21 21 22 23 24 25 25 25 24 24 23 23 23 23 23 23 24 24
20 20 20 21 21 21 21 21 21 21 20 20 19 19 19 19 19 18 18 19 19 19 19 19 20 20 20 20 21 21 21 22 22 22 22 22 22 23 22 21 20 19 19 19 20 21 21 21 21 21 21 21 22 23 24 24 24 24 24 24 24 24 23 23 23 23 23 23 23
19 19 20 20 20 21 21 20 20 20 20 19 19 19 19 18 18 18 18 18 18 18 18 19 19 19 19 19 20 20 21 21 22 22 22 21 21 21 22 22 21 19 18 18 19 20 21 21 21 21 21 22 22 23 23 24 24 23 23 24 24 24 23 23 23 23 22 23 23
18 19 19 19 20 20 20 19 19 19 19 19 19 19 19 18 18 18 18 18 18 18 18 19 19 19 19 19 19 20 20 20 21 21 21 20 20 20 20 21 21 20 19 19 19 20 21 21 21 22 22 22 23 23 23 23 23 23 23 23 23 23 23 23 23 23 22 22 22
18 18 18 18 19 19 19 19 19 19 19 19 19 19 19 19 19 19 19 18 19 19 19 19 18 19 19 19 19 19 20 20 20 20 20 20 20 20 20 20 21 20 20 19 19 19 20 20 21 21 22 22 22 22 23 23 23 23 23 23 23 23 23 23 22 22 22 22 21
18 17 17 17 17 17 17 18 18 18 18 18 19 19 19 19 19 19 19 19 19 19 19 19 19 19 19 19 20 20 19 19 19 20 20 20 21 20 20 20 20 20 20 19 19 18 18 19 20 20 21 21 22 22 22 22 23 23 23 23 23 23 23 23 22 22 21 21 20
17 17 17 16 16 16 16 16 16 17 17 17 17 18 18 18 17 18 18 18 18 18 18 18 19 19 19 20 20 20 20 19 19 19 20 20 21 21 20 19 19 19 19 19 19 18 18 18 19 20 20 21 21 22 22 22 22 22 23 23 23 23 23 22 22 21 20 20 20
16 16 15 15 15 15 15 15 15 15 15 16 16 17 17 17 17 17 17 17 16 17 17 18 18 18 19 19 20 20 19 19 18 18 19 19 20 20 19 18 18 18 18 18 19 19 18 18 18 19 20 21 21 22 22 22 22 22 23 23 22 22 22 22 22 21 20 20 19
15 14 14 13 13 13 13 13 13 13 13 14 15 15 15 16 16 15 15 15 15 16 16 17 17 17 18 18 18 18 18 18 17 17 17 18 18 18 17 17 17 18 18 18 19 19 19 18 18 18 19 20 21 21 22 22 22 22 22 22 22 22 22 22 21 21 20 20 19
13 13 12 12 12 11 11 11 11 12 12 13 13 14 14 14 14 14 13 13 14 15 15 16 16 16 16 16 16 16 17 16 16 16 15 16 16 16 16 16 17 18 18 18 18 19 19 19 18 18 18 19 20 21 21 21 22 22 22 21 21 21 21 21 21 21 20 20 19
12 11 11 11 10 10 10 10 10 11 11 12 12 12 13 13 13 12 12 13 13 13 14 14 14 14 14 14 14 15 15 16 16 15 14 14 14 15 15 15 16 17 17 17 17 18 18 18 18 17 17 18 18 19 20 20 21 21 21 21 20 20 20 20 20 20 20 20 20
10 10 10 10 10 10 10 10 10 11 11 11 11 11 11 12 12 11 12 12 12 12 12 12 12 12 12 12 12 13 14 15 15 15 15 14 14 15 15 15 15 15 16 16 17 17 17 17 17 16 16 16 17 17 18 19 19 20 20 20 20 20 20 20 19 20 20 20 20
9 9 10 10 9 9 10 10 10 10 10 10 10 10 11 11 10 10 11 11 11 11 10 11 11 11 11 11 11 11 12 13 15 15 16 16 16 16 16 16 15 15 15 16 16 17 17 17 16 15 14 14 15 16 17 18 18 19 19 19 19 19 20 20 20 20 20 20 20
9 9 9 9 9 9 10 10 9 9 9 9 10 10 10 10 10 10 10 10 10 10 9 10 10 10 9 9 10 10 11 12 13 14 15 17 17 18 19 18 17 16 15 15 15 16 16 17 16 15 14 13 14 16 17 17 18 18 19 19 19 19 20 20 20 20 20 20 20
9 9 8 8 9 9 9 9 9 9 9 9 10 10 9 9 9 10 10 10 10 9 9 10 9 9 9 9 10 10 10 10 11 13 14 16 17 18 19 19 18 17 16 15 15 15 16 16 16 15 14 13 13 15 16 16 17 18 19 19 19 19 19 19 20 20 20 20 21
9 8 8 8 9 9 9 9 9 10 9 9 9 9 9 9 10 10 10 10 10 10 11 10 9 8 9 10 10 9 9 9 10 11 12 14 15 16 18 19 19 18 17 15 15 15 15 16 16 15 14 13 13 14 15 16 16 17 18 19 19 19 19 19 19 19 20 20 21
9 8 8 9 9 9 10 10 10 10 9 9 9 9 9 9 10 10 11 11 12 12 11 10 9 9 10 10 10 10 9 9 8 9 10 12 13 15 16 17 19 19 18 16 15 15 15 15 16 15 15 14 13 13 14 15 15 16 17 18 18 19 19 19 19 19 19 20 21
9 9 9 9 9 10 10 10 10 9 9 8 8 9 9 10 11 12 12 12 12 12 10 9 9 9 10 10 10 10 10 9 8 8 9 10 11 13 14 16 18 19 18 17 16 15 15 15 16 16 15 14 13 13 14 14 15 15 16 17 18 18 18 18 19 19 19 20 20
9 9 9 9 10 10 10 9 9 9 9 9 9 10 10 11 12 12 12 12 11 10 9 9 9 10 10 10 10 11 10 10 9 8 8 9 10 11 14 16 18 19 19 17 16 15 15 15 15 16 15 14 14 13 13 14 14 15 15 16 17 17 18 18 18 18 19 19 19
9 9 9 9 9 9 9 9 8 8 9 9 10 10 11 12 12 12 11 11 10 10 10 10 10 11 11 11 11 11 11 11 10 9 8 8 8 10 13 15 17 19 19 18 17 16 15 15 15 15 15 14 14 13 13 13 14 14 15 15 16 16 17 17 17 17 18 18 18
9 9 8 9 9 8 8 8 8 8 8 9 10 11 11 11 11 11 11 11 10 10 10 10 11 11 11 11 11 12 11 11 10 9 8 8 8 9 11 14 16 17 18 18 17 16 15 14 14 15 15 14 13 13 13 13 13 14 14 14 15 15 15 15 15 16 16 16 16
9 9 8 8 8 8 7 7 7 8 8 10 10 10 10 11 11 11 11 10 10 10 10 11 11 10 10 10 11 11 11 11 11 10 9 8 8 9 10 12 14 15 16 17 16 16 15 14 13 14 14 13 13 13 12 12 13 13 14 14 14 14 14 14 14 15 16 16 16
9 8 8 8 7 7 7 7 7 8 8 9 10 10 10 10 10 10 10 9 9 9 9 10 10 10 10 11 11 11 12 12 12 11 10 9 9 9 10 10 12 13 15 16 16 16 15 14 13 13 14 13 13 13 13 13 13 13 14 14 14 14 14 14 14 15 16 16 17
8 8 7 7 7 7 7 7 7 8 9 9 10 10 10 10 10 9 9 8 8 9 9 9 9 10 11 11 11 12 12 12 12 12 11 11 11 10 9 8 9 12 14 16 16 16 16 15 14 14 14 14 14 14 14 13 13 13 14 14 14 14 14 14 14 15 17 17 17
7 7 7 7 7 7 7 7 7 8 9 9 9 9 9 9 9 9 8 8 9 9 10 9 10 10 10 10 10 10 10 11 11 12 12 12 12 11 10 8 8 11 14 15 16 16 16 16 16 15 15 15 15 14 14 13 13 13 14 14 14 14 14 14 15 16 17 18 17
6 6 6 6 6 6 7 7 8 8 9 9 9 9 9 9 9 8 8 8 8 9 10 10 10 10 9 9 8 9 9 10 11 12 12 12 12 11 10 9 9 11 13 15 16 16 16 16 17 16 15 16 15 15 14 13 13 14 15 15 15 15 15 15 15 16 17 18 17
6 6 6 6 6 6 6 7 8 8 8 8 9 9 9 9 8 8 7 7 8 8 9 9 9 8 8 7 7 8 8 9 10 11 12 13 13 12 11 10 11 12 14 15 15 15 16 16 17 16 16 16 15 15 14 14 14 14 15 15 15 15 15 15 16 16 17 17 17
5 5 5 5 6 6 6 7 7 7 7 8 8 8 8 8 7 7 6 6 7 8 8 8 8 7 7 6 7 7 8 9 10 11 12 13 13 13 12 12 12 13 14 15 15 15 15 16 17 16 16 16 16 15 15 15 14 15 15 15 15 15 15 16 16 16 17 17 17
Wind_Direction
59 60 61 65 69 73 75 75 75 75 75 75 73 72 71 69 67 65 65 63 61 60 58 57 55 54 52 52 52 53 55 56 57 57 57 58 59 59 60 61 62 63 65 66 67 66 65 66 66 66 65 65 64 63 62 61 60 60 61 62 58 50 41 35 28 25 25 27 32
58 60 62 65 69 73 74 74 74 74 74 74 73 71 70 68 66 65 64 63 62 62 61 60 58 56 54 53 53 53 54 55 56 57 58 58 59 60 61 62 64 65 66 66 65 64 63 63 63 62 62 63 63 61 59 59 59 59 60 61 59 56 51 46 40 36 35 35 37
57 60 62 64 67 69 70 70 71 72 72 72 72 71 70 68 66 65 63 63 64 63 62 59 58 57 55 54 53 54 54 54 56 57 57 57 59 60 61 63 65 66 66 66 65 64 62 61 61 60 59 59 60 58 56 56 57 58 58 59 58 57 53 48 43 41 40 40 40
56 57 58 61 63 65 67 68 69 70 70 70 71 70 69 68 66 65 65 65 64 61 60 59 58 57 56 55 54 54 54 54 55 55 56 56 57 59 60 62 64 65 66 66 65 64 63 61 59 58 58 58 57 56 55 54 56 57 58 58 58 57 53 48 44 42 42 42 43
54 56 57 60 62 64 65 67 68 69 70 71 71 70 69 68 67 66 65 64 61 60 59 60 60 59 59 58 56 55 54 53 53 53 54 55 56 58 60 61 61 63 64 65 64 63 62 61 58 56 55 55 55 55 55 55 55 56 57 57 56 55 53 48 44 42 41 42 44
53 55 58 60 62 63 64 65 66 67 69 70 70 69 68 66 65 64 63 62 62 61 61 60 60 60 60 59 58 56 54 53 53 53 54 54 55 57 58 59 60 61 62 62 62 62 61 59 57 54 53 52 53 54 55 56 56 56 55 54 53 53 51 48 44 41 40 40 41
54 56 58 60 61 62 63 64 65 66 68 69 69 68 68 67 67 65 65 64 63 62 60 59 59 59 59 58 57 55 53 51 51 52 53 53 54 56 57 57 58 59 59 60 60 60 59 58 55 53 51 50 50 51 53 56 57 57 55 52 51 50 49 47 45 42 40 39 39
56 57 58 60 62 63 63 63 64 65 65 66 66 67 67 68 67 67 66 64 62 61 61 60 60 59 59 58 57 55 53 50 49 50 51 52 53 55 56 57 57 57 57 58 58 57 57 57 55 52 50 49 48 49 51 55 58 59 56 52 50 48 48 46 45 44 42 40 40
57 58 60 61 62 64 64 64 64 64 64 64 64 65 66 66 67 67 65 63 63 63 63 62 62 61 61 60 58 56 54 51 49 48 49 51 52 54 55 56 56 56 56 56 56 55 55 55 54 52 51 50 49 49 52 55 59 60 58 54 50 48 46 46 46 45 44 42 41
56 58 59 61 62 64 65 65 65 64 64 63 63 63 63 64 65 65 65 65 66 66 64 63 63 62 61 60 58 57 55 53 50 49 49 50 52 53 54 54 55 55 54 54 53 53 53 52 52 51 51 51 51 51 53 56 58 59 59 56 52 48 45 44 45 45 44 42 41
57 58 59 60 62 64 65 65 64 64 63 62 62 62 62 62 63 65 67 69 68 65 64 63 63 62 61 60 59 57 56 54 52 50 49 50 51 52 53 54 55 55 53 52 51 50 50 49 49 48 48 48 49 50 51 54 56 58 57 55 53 49 45 43 43 43 43 42 40
58 59 60 62 63 64 65 64 63 63 62 62 61 61 61 61 63 66 69 69 67 65 65 64 63 62 61 60 59 59 58 56 53 51 50 49 50 52 53 54 55 55 54 52 50 49 48 47 46 45 44 44 44 45 47 50 53 54 53 52 51 49 46 43 41 41 41 42 40
61 60 60 61 63 64 64 63 63 62 62 62 61 60 60 61 64 68 70 70 68 67 67 66 65 63 61 60 60 60 59 57 55 53 50 49 49 50 51 52 54 54 54 53 51 49 47 46 44 43 41 40 41 42 44 47 48 49 48 47 46 45 44 42 40 39 39 40 39
64 62 61 61 61 62 62 61 61 62 62 61 61 61 61 62 64 67 69 69 69 69 69 68 67 65 63 62 61 61 60 59 57 55 52 50 48 48 48 50 52 53 54 54 53 51 48 46 44 42 41 40 40 42 44 45 46 45 45 44 43 42 42 41 40 38 36 36 36
66 64 63 62 61 61 60 59 59 60 61 60 60 61 61 61 62 64 67 68 68 69 69 68 67 66 65 64 62 61 61 60 59 57 54 51 48 46 46 47 49 51 54 55 55 53 50 47 45 43 43 42 42 43 44 45 45 44 44 43 42 41 41 40 39 37 35 33 32
65 64 63 63 62 61 60 58 58 59 60 61 62 62 62 61 62 63 64 65 67 68 67 65 64 64 64 64 63 62 61 60 59 57 55 52 50 47 45 45 46 48 51 54 55 54 52 50 47 45 44 44 44 44 45 45 45 45 44 43 43 41 40 39 38 37 35 33 31
65 64 64 63 63 62 61 61 61 61 62 64 65 65 65 65 64 64 64 65 67 67 67 65 64 63 63 62 61 61 60 59 58 56 54 53 51 48 46 44 44 45 47 50 53 53 53 51 49 47 46 45 45 45 45 45 45 45 44 44 43 42 41 39 39 37 35 33 30
65 65 65 65 64 64 64 64 64 65 66 67 68 68 69 69 69 69 69 69 69 69 68 67 66 64 63 61 60 59 59 58 58 56 55 54 53 50 47 44 43 43 44 46 48 50 51 51 49 47 46 46 46 46 45 45 45 44 44 43 43 42 41 40 39 38 36 33 30
66 66 66 66 65 65 66 66 67 67 68 69 70 71 72 72 72 73 72 71 71 71 71 69 68 66 64 63 61 60 60 60 60 59 57 56 54 52 49 45 43 42 41 42 43 46 48 49 48 47 46 45 45 45 45 44 44 43 42 42 41 41 40 40 39 38 37 35 32
66 66 66 67 67 68 68 68 68 69 70 71 71 72 71 71 72 72 71 71 71 72 73 71 69 66 64 63 62 62 61 61 62 61 60 57 55 52 49 46 44 42 41 39 39 40 42 44 46 46 45 44 43 42 42 42 42 41 40 40 39 39 39 39 38 38 37 35 33
67 67 67 68 68 69 69 69 70 70 70 70 70 70 70 69 69 69 69 69 71 73 73 71 69 66 64 63 61 61 61 62 63 63 62 59 57 54 50 47 45 44 42 38 35 33 34 37 40 42 42 42 41 40 39 39 39 38 38 37 37 37 37 37 36 36 35 34 33
68 68 68 69 70 71 71 72 72 72 72 71 71 70 70 69 68 68 69 70 72 72 71 69 68 66 65 63 62 61 62 64 66 66 65 64 61 58 53 48 45 44 42 38 33 29 28 29 32 36 38 39 38 37 36 36 35 34 34 34 35 35 35 34 34 33 32 31 30
69 70 71 71 72 73 74 75 75 75 74 73 72 71 71 70 69 69 70 71 71 70 69 68 67 66 66 66 65 64 64 65 67 69 70 68 67 64 58 50 45 43 41 38 34 30 26 25 27 30 34 36 36 35 34 33 32 31 31 31 31 31 32 31 31 31 30 29 28
71 72 73 74 74 75 75 76 76 75 74 73 72 72 72 71 69 69 69 69 69 68 67 67 66 66 68 69 70 67 64 62 63 66 68 70 69 67 63 56 48 43 40 38 36 34 30 27 25 27 31 34 35 34 33 32 31 30 29 28 28 28 28 29 29 28 28 27 26
72 74 74 74 74 75 75 74 74 73 72 72 72 72 72 70 68 68 68 68 68 67 66 65 64 65 67 69 70 68 64 59 58 59 61 63 64 64 62 59 52 46 42 39 37 36 35 33 28 27 29 34 34 34 33 32 30 29 28 27 26 26 25 25 26 26 25 25 24
72 73 73 73 74 74 73 72 72 73 74 74 74 73 72 70 69 68 68 68 68 67 65 64 63 62 63 65 68 67 63 58 56 57 58 56 56 55 55 54 51 46 42 39 37 36 36 36 32 29 29 34 34 33 31 30 29 28 28 27 27 25 24 23 23 23 23 23 23
70 71 72 73 74 74 73 74 75 76 77 76 76 75 74 73 72 70 70 70 70 70 69 67 64 61 60 61 63 64 62 60 58 59 59 56 55 52 50 48 48 45 41 38 37 36 35 35 34 31 30 33 35 33 30 28 26 26 26 26 26 25 24 23 21 20 20 21 21
67 70 72 74 75 75 76 77 79 80 80 80 80 81 80 79 76 74 74 74 75 75 75 73 69 65 61 58 59 60 62 63 62 61 61 59 58 55 51 47 44 41 37 35 36 37 36 34 33 33 32 33 35 33 29 26 25 24 24 24 24 24 24 22 20 19 18 18 18
67 71 74 76 77 78 79 80 81 82 84 85 87 88 87 84 80 77 77 78 79 80 79 77 73 66 60 57 56 57 60 64 65 65 63 61 58 56 52 48 43 38 35 33 35 37 36 34 33 32 33 34 35 33 29 26 23 22 22 22 22 22 21 21 19 18 17 16 15
69 74 78 80 81 81 81 82 83 85 88 91 93 92 90 85 82 79 78 79 80 81 81 79 74 66 60 56 53 53 55 60 65 66 64 61 57 55 52 48 43 37 33 32 34 36 35 33 32 31 32 32 33 31 28 25 22 20 20 19 19 19 19 18 17 16 16 15 13
72 77 81 83 84 84 84 84 86 88 90 92 93 91 88 85 82 80 79 80 81 83 83 80 73 66 61 55 51 50 50 52 57 61 62 60 56 53 50 47 42 36 31 29 31 32 32 30 29 29 29 30 30 29 27 23 21 19 17 17 16 16 16 16 15 14 14 14 12
72 77 82 84 85 85 86 86 87 89 90 90 89 87 86 85 83 82 81 81 82 83 81 76 70 64 59 53 49 46 45 46 49 53 56 57 55 52 49 46 41 35 29 27 28 29 29 28 27 26 26 26 26 25 24 22 20 18 16 15 14 14 14 14 13 13 13 13 12
70 75 79 82 84 85 86 87 87 88 88 87 86 85 86 86 85 84 82 81 80 77 74 70 66 61 56 50 46 44 43 44 46 49 53 56 56 54 50 46 42 35 28 24 25 26 27 26 25 24 23 23 23 21 21 20 18 17 15 13 12 12 12 12 12 11 11 11 10
67 71 75 78 81 83 85 85 86 87 87 86 85 84 85 85 85 83 80 78 77 75 73 69 65 60 55 50 45 43 42 42 43 46 50 54 56 55 51 46 42 36 29 23 23 24 25 25 24 22 22 21 20 18 17 18 18 16 14 12 11 10 10 11 11 10 9 8 8
62 66 71 75 79 81 83 84 85 87 86 84 83 82 82 82 81 80 79 79 80 78 76 72 68 63 57 50 45 42 40 40 41 44 47 50 53 54 51 47 42 37 30 22 22 23 24 24 23 23 22 21 19 17 16 18 18 16 13 12 10 10 9 10 10 9 8 7 6
60 63 67 72 76 79 81 82 85 85 84 82 81 80 80 80 80 80 81 83 84 82 77 73 69 63 57 50 44 40 39 38 39 42 45 47 49 50 50 47 41 36 28 20 20 22 23 23 25 26 25 23 21 19 18 19 18 16 14 12 10 9 8 8 8 7 7 7 5
60 62 67 72 75 79 81 83 84 84 82 81 80 80 80 80 80 81 82 83 81 79 74 69 65 61 56 50 45 41 38 36 37 39 43 46 47 46 45 44 39 32 26 19 19 21 22 21 24 26 25 23 21 19 17 17 17 15 13 12 10 9 8 6 6 6 6 6 4
62 64 68 74 78 81 84 86 85 84 83 83 83 83 82 81 79 78 77 76 74 72 69 66 63 60 56 51 46 42 38 37 37 39 42 45 44 43 42 42 37 31 25 19 19 21 22 21 21 21 22 22 21 18 16 15 15 14 13 11 9 8 7 6 5 4 4 4 3
64 66 71 77 82 85 88 88 87 86 86 87 87 86 84 80 77 74 73 72 71 69 66 62 60 57 55 52 48 44 42 41 41 42 43 44 43 41 41 43 38 32 26 22 21 21 22 21 21 22 23 22 21 18 15 15 15 14 12 9 7 6 5 5 4 3 3 3 2
66 68 73 80 86 89 91 91 90 90 90 90 89 87 83 79 75 73 73 74 73 70 66 61 58 55 54 53 51 50 48 46 44 44 44 44 43 43 43 44 40 34 29 25 22 22 22 22 21 22 23 22 22 19 16 14 14 14 12 9 6 4 3 3 2 2 1 1 1
66 69 75 81 87 91 94 94 94 93 93 91 89 87 84 82 78 73 70 70 70 68 65 61 58 55 53 53 54 52 49 45 43 43 43 44 44 43 42 41 38 33 29 25 22 21 21 22 21 22 23 22 21 19 16 15 14 14 12 9 6 3 1 360 360 0 1 0 360
Height
781 780 780 780 779 779 779 779 780 780 780 780 780 781 781 781 781 781 781 782 782 782 782 782 782 782 781 781 780 779 778 777 777 776 775 774 774 773 772 771 770 770 769 769 768 767 767 766 766 766 765 765 764 764 764 764 763 762 761 759 757 757 758 759 759 760 759 759 758
783 783 782 782 781 781 780 780 781 781 781 781 781 782 782 782 782 782 782 782 783 783 783 783 782 782 782 781 781 780 779 778 777 776 776 775 774 773 772 771 771 770 770 769 769 768 768 767 767 766 766 766 765 765 764 764 763 762 760 758 757 757 758 759 760 760 760 759 758
785 785 784 784 783 782 782 782 782 782 782 782 782 782 782 783 783 783 784 784 784 783 783 783 783 783 782 782 781 780 779 779 778 777 776 775 775 774 773 772 771 771 770 770 769 769 769 768 768 768 767 767 766 766 765 765 764 762 760 758 758 758 759 760 761 761 760 760 759
787 787 786 785 784 784 783 784 784 783 783 783 783 783 783 784 784 784 785 784 784 784 784 784 784 783 783 782 781 781 780 779 779 778 777 776 775 774 774 773 772 771 771 771 770 770 770 769 769 769 769 768 767 767 766 766 764 762 761 759 759 759 760 761 762 762 761 761 760
789 788 788 787 786 786 786 785 785 785 785 785 784 784 785 785 785 785 785 785 785 785 785 785 784 784 783 782 782 781 781 780 779 778 777 777 776 775 775 774 773 772 772 771 771 771 771 770 770 770 770 769 768 768 768 767 765 764 762 761 760 760 761 762 762 763 762 762 761
791 791 790 789 788 788 787 787 787 786 786 786 786 786 786 786 787 787 786 786 786 786 786 786 785 784 784 783 782 781 781 780 780 779 778 778 777 776 775 774 774 773 773 773 772 772 771 771 771 771 771 770 770 769 769 768 766 765 763 762 762 761 762 763 764 764 764 763 762
794 793 792 791 790 789 789 789 789 788 788 787 787 787 788 788 788 788 788 788 787 787 787 786 786 785 784 783 783 782 782 781 781 780 780 779 778 777 776 776 775 774 774 774 773 773 772 772 772 772 772 771 771 770 770 769 768 766 764 763 763 762 763 764 765 765 765 764 763
795 794 793 792 791 791 791 791 790 790 789 789 789 789 789 789 789 789 789 789 788 788 788 787 787 786 785 784 784 783 783 783 782 782 781 780 779 778 777 777 776 776 775 775 774 774 774 773 773 773 773 773 772 772 771 770 768 766 764 764 764 764 765 766 766 766 766 765 764
796 795 794 794 793 793 792 792 791 791 791 791 791 791 791 791 791 790 790 790 790 789 789 788 788 787 786 785 785 784 784 784 784 783 782 781 780 779 779 778 777 777 776 776 776 776 775 775 775 775 775 775 774 774 773 771 769 766 765 765 766 766 767 767 767 767 766 766 765
797 797 796 795 795 794 794 793 793 792 792 792 792 792 792 792 792 791 791 791 791 790 790 789 789 788 787 787 786 786 785 785 785 784 784 783 782 781 780 779 779 778 778 778 778 777 777 777 777 777 776 776 776 775 774 772 770 768 766 767 767 768 768 768 768 767 767 766 766
799 798 797 797 796 796 795 794 794 793 793 793 793 793 793 793 793 792 792 792 791 791 791 790 790 789 789 788 787 787 787 786 786 786 785 784 783 782 781 781 780 780 780 780 779 779 779 779 778 778 778 778 777 776 775 773 771 769 768 769 769 769 769 769 769 768 768 768 767
800 799 798 798 797 796 796 795 795 794 794 794 794 794 794 794 794 794 793 793 792 792 792 791 791 790 790 789 789 789 788 788 787 787 786 785 784 784 783 783 782 782 781 781 781 781 780 780 780 780 780 779 779 778 776 774 771 770 770 770 770 770 770 769 769 769 769 769 768
800 800 799 799 798 798 797 796 796 796 796 796 795 795 795 795 795 795 794 794 793 793 793 792 792 792 791 791 791 790 789 789 788 788 787 787 786 786 785 785 784 784 783 783 782 782 782 782 782 782 782 781 780 779 777 774 772 771 771 772 771 771 771 770 770 770 770 769 769
801 801 801 800 799 799 798 798 797 797 797 797 797 796 796 796 796 796 795 795 794 794 794 794 793 793 793 792 792 791 791 790 789 789 788 788 788 788 787 787 786 786 785 784 784 784 783 783 783 783 783 782 781 779 777 775 774 774 774 773 773 772 772 771 771 771 771 770 770
803 802 802 801 801 800 799 799 799 798 798 798 798 798 797 797 797 797 796 796 796 795 795 794 794 794 794 793 793 792 792 791 790 790 790 789 789 789 789 788 788 787 787 786 786 785 785 785 785 784 784 783 781 780 778 777 776 776 775 775 774 774 773 773 772 772 772 772 771
804 803 803 802 801 801 801 800 800 800 800 799 799 799 799 798 798 798 797 797 797 796 796 796 795 795 795 794 794 793 793 792 792 791 791 791 791 791 790 790 789 789 788 788 787 787 786 786 786 785 785 784 782 781 780 779 778 778 777 777 776 775 774 774 773 773 773 773 773
804 804 804 803 803 802 802 802 802 801 801 801 800 800 800 799 799 799 799 798 798 797 797 797 796 796 795 795 795 794 794 793 793 792 792 792 792 792 792 791 791 790 790 789 789 788 788 787 787 786 786 785 783 782 781 781 780 779 779 778 777 776 776 775 774 774 774 774 774
805 805 805 804 804 804 804 803 803 803 802 802 801 801 801 800 800 800 799 799 799 798 798 798 797 797 796 796 796 795 795 794 794 794 793 793 793 793 793 792 792 791 791 790 790 789 789 789 788 787 787 786 785 784 783 782 781 781 780 779 778 777 777 776 776 775 775 775 775
806 806 806 805 805 805 805 804 804 804 803 803 802 802 802 801 801 800 800 800 799 799 799 798 798 798 797 797 796 796 796 796 795 795 794 794 794 794 794 794 793 792 792 792 791 791 791 790 789 789 788 787 786 785 784 783 782 781 781 780 779 778 778 777 777 777 776 776 776
808 807 807 807 806 806 806 805 805 805 804 804 803 803 802 802 802 801 801 800 800 800 799 799 799 799 798 798 797 797 797 797 796 796 796 795 795 794 795 795 794 794 794 793 793 793 792 791 790 789 788 787 786 786 785 784 783 782 781 781 780 779 779 779 778 778 778 778 777
809 809 808 808 807 807 807 806 806 806 805 805 804 804 803 803 803 802 802 802 801 801 800 800 800 799 799 799 799 798 798 798 798 797 797 796 796 796 796 796 796 796 795 794 794 793 792 792 791 790 789 788 787 786 785 784 783 782 782 781 781 781 780 780 780 779 779 779 778
810 810 809 809 809 808 808 807 807 806 806 806 805 805 804 804 804 803 803 803 802 802 801 801 801 801 801 801 800 800 800 800 799 799 799 798 798 798 798 798 797 796 796 795 794 793 792 792 791 790 789 788 787 786 785 784 784 783 783 782 782 781 781 781 781 780 780 780 779
811 811 810 810 810 809 809 808 808 807 807 806 806 806 806 805 805 805 804 804 803 803 803 803 802 802 802 802 802 801 801 801 801 800 800 799 799 799 798 798 798 797 796 796 795 794 793 792 791 790 789 789 788 787 786 786 785 784 784 783 783 783 782 782 782 781 781 781 780
812 812 811 811 810 810 809 809 809 808 808 807 807 807 806 806 806 805 805 805 804 804 804 804 804 804 804 803 803 803 802 802 802 801 801 800 799 799 798 798 798 797 797 796 796 795 794 793 792 791 790 790 789 788 788 787 786 786 785 785 784 784 784 783 783 783 782 782 781
813 812 812 811 811 811 810 810 809 809 808 808 808 808 807 807 807 806 806 806 806 805 805 805 805 805 804 804 804 804 803 803 802 802 801 801 800 799 798 798 798 798 797 797 797 796 795 794 793 792 791 791 790 790 789 789 788 787 787 786 786 785 785 784 784 783 783 782 781
814 813 813 812 812 811 811 810 810 809 809 809 809 808 808 808 807 807 807 807 806 806 806 806 806 805 805 805 805 804 804 804 803 802 802 801 800 799 799 798 798 798 798 798 797 797 796 795 794 793 792 792 791 791 790 789 789 789 788 787 787 786 786 785 784 784 783 782 782
814 813 813 813 812 812 811 811 811 810 810 810 809 809 809 809 808 808 808 807 807 807 807 807 806 806 806 806 805 805 805 804 804 803 803 802 801 800 799 799 799 799 799 799 798 797 797 796 795 794 793 792 792 791 791 790 790 789 789 788 787 787 786 786 785 784 784 783 782
814 814 814 813 813 812 812 812 811 811 811 810 810 810 810 809 809 809 808 808 808 808 807 807 807 807 807 806 806 806 806 805 805 804 804 803 802 801 800 799 799 800 800 799 799 798 797 797 796 795 794 793 793 792 792 791 791 790 789 789 788 787 787 786 786 785 784 784 783
815 815 814 814 813 813 813 812 812 812 811 811 811 811 810 810 810 809 809 809 809 808 808 808 808 807 807 807 807 806 806 806 805 805 804 804 803 802 801 800 800 800 800 800 799 798 798 797 796 796 795 794 793 793 792 792 791 791 790 789 789 788 787 787 786 786 785 784 783
816 815 815 815 814 814 814 813 813 813 812 812 812 811 811 810 810 810 810 809 809 809 809 808 808 808 807 807 807 807 806 806 806 806 805 805 804 803 802 801 800 800 800 800 800 799 798 798 797 796 796 795 794 793 793 792 792 791 791 790 789 789 788 787 787 786 785 785 784
816 816 816 815 815 814 814 814 814 813 813 812 812 811 811 811 811 810 810 810 810 809 809 809 808 808 808 808 807 807 807 807 806 806 805 805 804 804 803 802 801 800 801 801 800 799 799 798 797 797 796 795 794 794 793 793 792 792 791 790 790 789 788 788 787 786 786 785 784
817 817 816 816 815 815 815 814 814 814 813 813 812 812 811 811 811 811 811 810 810 810 809 809 809 809 808 808 808 807 807 807 806 806 806 805 805 804 803 802 801 801 801 801 801 800 799 798 798 797 796 796 795 794 794 793 793 792 791 791 790 789 789 788 787 787 786 785 784
817 817 816 816 816 815 815 815 814 814 813 813 812 812 812 812 811 811 811 811 811 810 810 809 809 809 809 808 808 808 807 807 807 806 806 806 805 804 804 803 802 801 801 802 801 800 799 799 798 797 797 796 795 794 794 793 793 792 792 791 790 790 789 789 788 787 786 786 785
818 817 817 816 816 816 815 815 815 814 814 813 813 813 812 812 812 812 811 811 811 811 810 810 810 809 809 809 809 808 808 807 807 806 806 806 805 805 804 803 802 802 802 802 801 801 800 799 798 798 797 796 795 795 794 794 793 793 792 791 791 790 790 789 788 788 787 786 786
818 818 817 817 816 816 816 815 815 814 814 814 813 813 813 813 812 812 812 812 812 811 811 811 810 810 810 809 809 809 808 808 807 807 806 806 805 805 804 804 803 803 802 802 802 801 800 799 799 798 798 797 796 795 795 794 793 793 792 792 791 791 790 789 789 788 787 786 786
818 818 817 817 817 816 816 816 815 815 814 814 814 814 813 813 813 813 813 812 812 812 811 811 811 810 810 810 809 809 808 808 807 807 806 806 806 805 805 805 804 803 803 802 802 802 801 800 799 798 798 797 796 796 795 794 794 793 793 792 791 791 790 789 789 788 787 786 786
819 818 818 817 817 817 816 816 816 815 815 814 814 814 814 814 814 813 813 813 813 812 812 811 811 811 810 810 810 809 809 808 808 807 807 806 806 806 806 806 805 804 803 802 803 802 801 800 799 798 798 797 796 796 795 794 794 793 793 792 791 791 790 789 789 788 787 786 786
819 819 818 818 817 817 817 816 816 816 815 815 815 815 815 814 814 814 814 813 813 812 812 812 811 811 811 811 810 810 809 809 809 808 808 807 807 807 807 806 806 805 804 803 803 802 802 801 800 799 798 797 796 796 795 794 794 793 793 792 791 791 790 789 789 788 787 786 786
819 819 819 818 818 817 817 817 816 816 816 816 816 815 815 815 814 814 814 814 813 813 813 812 812 812 811 811 811 811 810 810 810 809 809 808 808 808 808 807 806 805 804 803 803 803 802 801 800 799 798 797 797 796 795 795 794 794 793 792 791 791 790 790 789 788 787 787 786
819 819 819 818 818 818 817 817 817 817 816 816 816 816 815 815 815 815 814 814 814 813 813 813 813 813 812 812 812 811 811 811 811 810 810 809 809 808 808 807 806 805 804 803 803 803 803 802 801 800 799 798 797 796 796 795 794 794 793 792 792 791 790 790 789 788 788 787 786
820 819 819 819 818 818 818 817 817 817 817 817 816 816 816 816 815 815 814 814 814 814 814 813 813 813 813 813 813 812 812 812 811 811 810 810 809 808 808 807 806 806 804 804 804 804 803 802 801 801 799 798 798 797 796 795 795 794 793 793 792 791 790 790 789 788 788 787 786